Regional Weather Roundup
Issued by NWS

Home | Current Version | Previous Version | Text Only | Print | Product List | Glossary On
Versions: 1 2 3 4 5 6 7 8 9 10 11 12 13 14 15 16 17 18 19 20 21 22 23 24 25 26 27 28 29 30 31 32 33 34 35 36 37 38 39 40 41 42 43 44 45 46 47 48 49 50
000
ASUS45 KABQ 202210
RWRNM
NEW MEXICO REGIONAL WEATHER ROUNDUP
NATIONAL WEATHER SERVICE ALBUQUERQUE NM
400 PM MDT SAT JUL 20 2019

NOTE: "FAIR" MEANS FEW OR NO CLOUDS BELOW 12,000 FEET AGL WITH NO
       SIGNIFICANT WEATHER OR OBSTRUCTIONS TO VISION.

      THIS PRODUCT IS RELEASED AS TWO VERSIONS.  ONE VERSION NEAR
      THE TOP OF THE HOUR CONTAINING PRELIMINARY DATA FROM ALBUQUERQUE
      AND OTHER STATIONS.  A FINAL VERSION WITH ADDITIONAL DATA IS
      ISSUED ABOUT 10 MINUTES AFTER THE HOUR.

NMZ501-503-504-510>518-202300-
NORTHWEST PLATEAU/NORTHCENTRAL MOUNTAINS

CITY           SKY/WX    TMP DP  RH WIND       PRES   REMARKS
FARMINGTON     FAIR      94  32  11 W9G23     30.05F
LOS ALAMOS       N/A     79  36  21 NW18G33   30.21R
SANTA FE       FAIR      93  36  13 NW24G38   30.09S
TAOS           FAIR      85  41  21 E26G35    30.16F
ANGEL FIRE     RAIN      65  49  56 N20G26    30.35R

$$
NMZ402-403-502-505>509-202300-
WESTCENTRAL MOUNTAINS/SOUTHWEST MOUNTAINS

CITY           SKY/WX    TMP DP  RH WIND       PRES   REMARKS
GALLUP         FAIR      92  33  12 MISG      30.15F
GRANTS         FAIR      93  35  13 N9        30.15F
SILVER CITY    PTSUNNY   92  46  20 NE18G25   30.06S

$$
NMZ407-409-411-412-202300-
SOUTHERN DESERTS

CITY           SKY/WX    TMP DP  RH WIND       PRES   REMARKS
DEMING         FAIR     101  41  12 W7G18     29.94F HX  96
LAS CRUCES     FAIR     101  41  13 W3        29.97F HX  96
ALAMOGORDO     FAIR     100  43  14 S8G17     29.94F HX  96
T OR C         PTSUNNY   99  42  14 W21       29.99F

$$
NMZ519>523-202300-
CENTRAL VALLEYS/CENTRAL HIGHLANDS

CITY           SKY/WX    TMP DP  RH WIND       PRES   REMARKS
ALBUQUERQUE    FAIR      99  42  14 VRB5      30.00F
DOUBLE EAGLE   MOSUNNY   91  43  18 VRB7      30.07R
MORIARTY ARPT  FAIR      92  35  13 W15G21    30.10S
CLINES CORNERS FAIR      90  40  17 MISG      30.16
BELEN          FAIR      98  34  11 CALM      30.00F
SOCORRO        FAIR      99  36  11 S5        29.98F

$$
NMZ524>526-539-540-202300-
SOUTHCENTRAL MOUNTAINS

CITY           SKY/WX    TMP DP  RH WIND       PRES   REMARKS
RUIDOSO        PTSUNNY   90  41  18 N15G22    30.17F

$$
NMZ527>531-202300-
NORTHEAST HIGHLANDS/NORTHEAST PLAINS

CITY           SKY/WX    TMP DP  RH WIND       PRES   REMARKS
LAS VEGAS      FAIR      89  39  17 S13       30.13F
RATON          FAIR      91  37  15 NW12      30.07S
CLAYTON        LGT RAIN  83  50  31 NW15G33   29.93S

$$
NMZ532>537-202300-
EASTCENTRAL PLAINS

CITY           SKY/WX    TMP DP  RH WIND       PRES   REMARKS
SANTA ROSA     FAIR     105  43  12 W10       29.91F HX 100
TUCUMCARI      FAIR     107  44  12 S9G20     29.82F HX 102
CANNON AFB     FAIR     100  46  15 S8G17     29.91F HX  96
CLOVIS AIRPORT FAIR     103  46  14 W15       29.90F HX  99

$$
NMZ028-029-538-202300-
SOUTHEAST PLAINS

CITY           SKY/WX    TMP DP  RH WIND       PRES   REMARKS
ROSWELL        FAIR     108  47  13 S20G28    29.85F HX 104
ARTESIA        FAIR     104  52  17 S15G25    29.87F HX 101
CARLSBAD       PTSUNNY  105  50  15 SW9       29.84F HX 102
HOBBS          MOSUNNY  102  48  16 S12G20    29.90F HX  99


$$




USA.gov is the U.S. government's official web portal to all federal, state and local government web resources and services.